Weather History for CAAW - January, 2014

Change the Weather History Date:

Wednesday, January 29, 2014

  Actual Average Record
Temperature  
Mean Temperature 14 °F -  
Max Temperature 18 °F - - ()
Min Temperature 10 °F - - ()
Degree Days  
Heating Degree Days 52    
Moisture  
Dew Point 11 °F    
Average Humidity 85    
Maximum Humidity 95    
Minimum Humidity 55    
Precipitation  
Precipitation 0.28 in - - ()
Sea Level Pressure  
Sea Level Pressure 30.07 in    
Wind  
Wind Speed 5 mph ()    
Max Wind Speed 14 mph    
Max Gust Speed -    
T = Trace of Precipitation, MM = Missing Value Source: Averaged Metar Reports

Daily Weather History Graph

Daily Weather History Graph

Search for Another Location

Airport or City:

Trip Planner

Search our weather history database for the weather conditions in past years. The results will help you decide how hot, cold, wet, or windy it might be!

Date:

Astronomy

Jan. 29, 2014 Rise Set
Actual Time 7:36 AM AST 5:18 PM AST
Civil Twilight 7:04 AM AST 5:49 PM AST
Nautical Twilight 6:29 AM AST 6:25 PM AST
Astronomical Twilight 5:55 AM AST 6:59 PM AST
Moon 6:09 AM AST (1/29) 4:13 PM AST (1/29)
Length of Visible Light 10h 45m
Length of Day
9h 42m
Waning Crescent, 2% of the Moon is Illuminated
Jan 29
Waning Crescent
Jan 30
New
Feb 6
First Quarter
Feb 14
Full
Feb 22
Last Quarter

Hourly Weather History & Observations

Time (AST) Temp. Windchill Dew Point Humidity Pressure Visibility Wind Dir Wind Speed Gust Speed Precip Events Conditions
12:00 AM 16.5 °F 6.9 °F 3.0 °F 55% 30.29 in - NW 6.9 mph - N/A   Unknown
1:00 AM 15.3 °F 9.6 °F 5.5 °F 65% 30.30 in - SSW 3.5 mph - N/A   Unknown
2:00 AM 14 °F - 7 °F 63% 30.27 in - South 1.2 mph - -  
2:00 AM 13.6 °F - 7.2 °F 75% 30.27 in - South 2.3 mph - N/A   Unknown
3:00 AM 15.8 °F 8.6 °F 8.6 °F 73% 30.24 in - NE 4.6 mph - N/A   Unknown
4:00 AM 16.2 °F - 10.0 °F 77% 30.29 in - ENE 2.3 mph - N/A   Unknown
5:00 AM 14.7 °F 3.8 °F 6.1 °F 69% 30.22 in - NE 8.1 mph - N/A   Unknown
6:00 AM 15.8 °F 7.2 °F 7.5 °F 70% 30.23 in - ENE 5.8 mph - N/A   Unknown
7:00 AM 15.8 °F 3.4 °F 11.7 °F 84% 30.20 in - NE 10.4 mph - N/A   Unknown
8:00 AM 15 °F - 12 °F 83% 30.18 in - ENE 10.4 mph - -  
8:00 AM 14.5 °F 3.6 °F 12.2 °F 90% 30.18 in - ENE 8.1 mph - 0.02 in   Unknown
9:00 AM 13.5 °F -1.5 °F 11.5 °F 92% 30.12 in - ENE 13.8 mph - 0.03 in   Unknown
10:00 AM 13.1 °F 0.1 °F 11.1 °F 92% 30.10 in - NE 10.4 mph - 0.02 in   Unknown
11:00 AM 13.3 °F 1.1 °F 11.3 °F 92% 30.09 in - NE 9.2 mph - 0.04 in   Unknown
12:00 PM 13.8 °F 1.8 °F 12.0 °F 93% 30.01 in - NE 9.2 mph - 0.07 in   Unknown
1:00 PM 14.7 °F 3.8 °F 12.9 °F 93% 29.98 in - NNE 8.1 mph - 0.06 in   Unknown
2:00 PM 16 °F - 14 °F 89% 29.93 in - NNE 6.9 mph - -  
2:00 PM 15.8 °F 7.2 °F 14.2 °F 93% 29.93 in - NNE 5.8 mph - 0.07 in   Unknown
3:00 PM 16.5 °F 6.9 °F 14.9 °F 93% 29.90 in - NNE 6.9 mph - 0.07 in   Unknown
4:00 PM 16.9 °F 9.8 °F 15.4 °F 94% 29.88 in - North 4.6 mph - 0.04 in   Unknown
5:00 PM 17.1 °F 7.6 °F 15.4 °F 93% 29.87 in - NNW 6.9 mph - N/A   Unknown
6:00 PM 16.7 °F - 14.9 °F 93% 29.87 in - NNW 2.3 mph - N/A   Unknown
7:00 PM 16.3 °F 9.2 °F 14.5 °F 93% 29.89 in - NW 4.6 mph - N/A   Unknown
8:00 PM 14 °F - 12 °F 88% 29.91 in - NNE 2.3 mph - -  
8:00 PM 14.0 °F - 12.0 °F 92% 29.91 in - NNE 2.3 mph - N/A   Unknown
9:00 PM 10.6 °F 4.3 °F 8.6 °F 92% 29.94 in - WNW 3.5 mph - 0.01 in   Unknown
10:00 PM 17.2 °F 10.2 °F 15.6 °F 93% 29.95 in - West 4.6 mph - N/A   Unknown
11:00 PM 18.0 °F 9.8 °F 16.7 °F 95% 29.96 in - WSW 5.8 mph - N/A   Unknown